Regional Weather Roundup
Issued by NWS Charleston, WV

Home | Current Version | Previous Version | Text Only | Print | Product List | Glossary Off
Versions: 1 2 3 4 5 6 7 8 9 10 11 12 13 14 15 16 17 18 19 20 21 22 23 24 25 26 27 28 29 30 31 32 33 34 35 36 37 38 39 40 41 42 43 44 45 46 47 48 49

000
ASUS41 KRLX 292310
RWRRLX
West Virginia Regional Weather Roundup
National Weather Service Charleston WV
600 PM EST THU JAN 29 2015

Note: "fair" indicates few or no clouds below 12,000 feet with no
significant weather and/or obstructions to visibility.

WVZ003-300000-
Northern Panhandle of West Virginia

CITY           SKY/WX    TMP DP  RH WIND       PRES   REMARKS
WHEELING       LGT RAIN  38  36  92 SW13G21   29.80R FOG
$$

WVZ009-300000-
Northwest West Virginia

CITY           SKY/WX    TMP DP  RH WIND       PRES   REMARKS
PARKERSBURG    CLOUDY    47  38  71 W12G22    29.89R
$$

WVZ006-300000-
Western West Virginia

CITY           SKY/WX    TMP DP  RH WIND       PRES   REMARKS
HUNTINGTON     CLOUDY    48  38  68 W14G25    29.93R
$$

WVZ015-300000-
West Central West Virginia

CITY           SKY/WX    TMP DP  RH WIND       PRES   REMARKS
CHARLESTON     CLOUDY    50  35  56 CALM      29.88R
$$

WVZ022-031-300000-
North Central West Virginia

CITY           SKY/WX    TMP DP  RH WIND       PRES   REMARKS
CLARKSBURG     CLOUDY    44  36  73 S10       29.84F
MORGANTOWN     LGT RAIN  43  35  73 S7        29.83F
$$

WVZ025-035-042-045-300000-
Southern West Virginia

CITY           SKY/WX    TMP DP  RH WIND       PRES   REMARKS
BECKLEY        CLOUDY    45  30  55 SW12G22   29.92R
LOGAN          CLOUDY    52  36  54 SW10      29.90S
BLUEFIELD      CLOUDY    47  30  51 W15G26    29.95R
LEWISBURG      CLOUDY    35  30  83 N3        29.95S
$$

WVZ047-300000-
Northern Mountains of West Virginia

CITY           SKY/WX    TMP DP  RH WIND       PRES   REMARKS
ELKINS         CLOUDY    40  36  86 S7        29.89F
$$

WVZ052-300000-
Eastern Panhandle of West Virginia

CITY           SKY/WX    TMP DP  RH WIND       PRES   REMARKS
MARTINSBURG    CLOUDY    35  21  56 SE7       29.99F
PETERSBURG     CLOUDY    30  22  74 CALM      29.95S
$$



USA.gov is the U.S. government's official web portal to all federal, state and local government web resources and services.